Weather History for San Juan, PR

Change the Weather History Date:

Sunday, July 8, 2012

  Actual Average Record
Temperature  
Mean Temperature 84 °F 83 °F  
Max Temperature 90 °F 89 °F 94 °F (1995)
Min Temperature 78 °F 78 °F 70 °F (1961)
Degree Days  
Heating Degree Days 0 0  
Month to date heating degree days 0 0  
Since 1 June heating degree days 0 0  
Since 1 July heating degree days 0 0  
Cooling Degree Days 19 18  
Month to date cooling degree days 151 144  
Year to date cooling degree days 2958 2858  
Since 1 June cooling degree days 777 693  
Growing Degree Days 34 (Base 50)    
Moisture  
Dew Point 73 °F    
Average Humidity 74    
Maximum Humidity 85    
Minimum Humidity 63    
Precipitation  
Precipitation 0.12 in 0.16 in 1.56 in (1996)
Month to date precipitation 1.88 1.24  
Year to date precipitation 27.59 24.33  
Sea Level Pressure  
Sea Level Pressure 30.00 in    
Wind  
Wind Speed 8 mph (ENE)    
Max Wind Speed 20 mph    
Max Gust Speed 24 mph    
Visibility 10 miles    
Events Rain    
T = Trace of Precipitation, MM = Missing Value Source: NWS Daily Summary

Daily Weather History Graph

Daily Weather History Graph

Search for Another Location

Airport:

Trip Planner

Search our weather history database for the weather conditions in past years. The results will help you decide how hot, cold, wet, or windy it might be!

Date:

Astronomy

Jul. 08, 2012 Rise Set
Actual Time 5:53 AM AST 7:04 PM AST
Civil Twilight 5:29 AM AST 7:28 PM AST
Nautical Twilight 5:01 AM AST 7:57 PM AST
Astronomical Twilight 4:31 AM AST 8:26 PM AST
Moon 10:45 PM AST (7/8) 10:26 AM AST (7/8)
Length of Visible Light 13h 58m
Length of Day
13h 10m
Waning Gibbous, 73% of the Moon is Illuminated
Jul 8
Waning Gibbous
Jul 10
Last Quarter
Jul 19
New
Jul 26
First Quarter
Aug 1
Full

Hourly Weather History & Observations

Time (AST) Temp. Heat Index Dew Point Humidity Pressure Visibility Wind Dir Wind Speed Gust Speed Precip Events Conditions
12:56 AM 81.0 °F 85.2 °F 72.0 °F 74% 30.01 in 10.0 mi Calm Calm - N/A   Scattered Clouds
1:56 AM 80.1 °F 84.2 °F 73.0 °F 79% 29.99 in 10.0 mi Calm Calm - N/A   Partly Cloudy
2:56 AM 80.1 °F 83.8 °F 72.0 °F 76% 29.98 in 10.0 mi Calm Calm - N/A   Scattered Clouds
3:56 AM 80.1 °F 83.8 °F 72.0 °F 76% 29.99 in 10.0 mi Calm Calm - N/A   Partly Cloudy
4:56 AM 80.1 °F 83.8 °F 72.0 °F 76% 29.99 in 10.0 mi Calm Calm - N/A   Scattered Clouds
5:56 AM 79.0 °F - 73.9 °F 84% 29.99 in 10.0 mi Calm Calm - 0.07 in   Scattered Clouds
6:56 AM 79.0 °F - 73.9 °F 84% 30.01 in 10.0 mi Calm Calm - N/A   Scattered Clouds
7:56 AM 79.0 °F - 73.0 °F 82% 30.02 in 9.0 mi ESE 3.5 mph - 0.04 in Rain Light Rain
8:56 AM 84.0 °F 91.9 °F 75.0 °F 74% 30.03 in 10.0 mi ENE 6.9 mph - 0.01 in   Scattered Clouds
9:56 AM 86.0 °F 93.0 °F 73.0 °F 65% 30.04 in 10.0 mi ENE 12.7 mph - N/A   Scattered Clouds
10:56 AM 88.0 °F 96.5 °F 73.9 °F 63% 30.04 in 10.0 mi NE 13.8 mph - N/A   Scattered Clouds
11:56 AM 88.0 °F 95.6 °F 73.0 °F 61% 30.03 in 10.0 mi ENE 16.1 mph - N/A   Scattered Clouds
12:56 PM 88.0 °F 95.6 °F 73.0 °F 61% 30.02 in 10.0 mi ENE 18.4 mph - N/A   Scattered Clouds
1:56 PM 84.9 °F 90.7 °F 72.0 °F 65% 30.01 in 10.0 mi East 12.7 mph - N/A   Scattered Clouds
2:56 PM 84.9 °F 91.4 °F 73.0 °F 67% 30.00 in 10.0 mi ENE 12.7 mph - N/A   Scattered Clouds
3:56 PM 86.0 °F 93.8 °F 73.9 °F 67% 29.98 in 10.0 mi ENE 13.8 mph 21.9 mph N/A   Scattered Clouds
4:56 PM 86.0 °F 93.8 °F 73.9 °F 67% 29.96 in 10.0 mi ENE 16.1 mph - N/A   Scattered Clouds
5:56 PM 84.0 °F 90.2 °F 73.0 °F 69% 29.97 in 10.0 mi ENE 11.5 mph - N/A   Scattered Clouds
6:56 PM 82.9 °F 89.4 °F 73.9 °F 74% 29.98 in 10.0 mi East 10.4 mph - N/A   Scattered Clouds
7:56 PM 82.0 °F 87.9 °F 73.9 °F 76% 29.99 in 10.0 mi East 10.4 mph - N/A   Scattered Clouds
8:56 PM 82.0 °F 87.9 °F 73.9 °F 76% 30.00 in 10.0 mi East 10.4 mph - N/A   Scattered Clouds
9:56 PM 82.0 °F 87.9 °F 73.9 °F 76% 30.01 in 10.0 mi East 6.9 mph - N/A   Partly Cloudy
10:56 PM 82.0 °F 87.4 °F 73.0 °F 74% 30.02 in 10.0 mi East 5.8 mph - N/A   Scattered Clouds
11:56 PM 82.0 °F 87.4 °F 73.0 °F 74% 30.01 in 10.0 mi East 4.6 mph - N/A   Scattered Clouds